This is the latest recevied weather packets stored in our database for station/object KC5DAQ-26. If no packets are shown the sender has not sent any weather packets the latest 10 day(s).
| Time | Temp. | Humidity | Pressure | Rain* | Wind** | Luminosity | Snow |
|---|---|---|---|---|---|---|---|
| 1788555182 | 31.67° C | 75% | 1015.9 hPa | 0 mm | - | 185 W/m² | - |
| 1788555122 | 31.67° C | 77% | 1015.9 hPa | 0 mm | - | 185 W/m² | - |
| 1788555064 | 31.67° C | 75% | 1015.9 hPa | 0 mm | - | 188 W/m² | - |
| 1788555004 | 31.67° C | 74% | 1015.9 hPa | 0 mm | - | 188 W/m² | - |
| 1788554943 | 31.67° C | 75% | 1015.9 hPa | 0 mm | - | 176 W/m² | - |
| 1788554883 | 31.67° C | 76% | 1015.9 hPa | 0 mm | - | 174 W/m² | - |
| 1788554843 | 31.67° C | 76% | 1015.9 hPa | 0 mm | - | 171 W/m² | - |
| 1788554763 | 31.67° C | 75% | 1015.9 hPa | 0 mm | - | 172 W/m² | - |
| 1788554703 | 31.67° C | 77% | 1015.9 hPa | 0 mm | - | 167 W/m² | - |
| 1788554643 | 31.67° C | 77% | 1015.8 hPa | 0 mm | - | 164 W/m² | - |
| 1788554584 | 31.67° C | 76% | 1015.8 hPa | 0 mm | - | 158 W/m² | - |
| 1788554523 | 31.67° C | 76% | 1015.8 hPa | 0 mm | - | 148 W/m² | - |
| 1788554462 | 31.67° C | 75% | 1015.8 hPa | 0 mm | - | 148 W/m² | - |
| 1788554403 | 31.67° C | 74% | 1015.9 hPa | 0 mm | - | 144 W/m² | - |
| 1788554344 | 31.67° C | 75% | 1015.9 hPa | 0 mm | - | 139 W/m² | - |
| 1788554283 | 31.67° C | 76% | 1015.9 hPa | 0 mm | - | 132 W/m² | - |
| 1788554224 | 31.67° C | 76% | 1015.8 hPa | 0 mm | - | 123 W/m² | - |
| 1788554163 | 31.67° C | 76% | 1016 hPa | 0 mm | - | 118 W/m² | - |
| 1788554105 | 31.67° C | 75% | 1016 hPa | 0 mm | - | 118 W/m² | - |
| 1788554041 | 31.67° C | 76% | 1016 hPa | 0 mm | - | 118 W/m² | - |
| 1788553981 | 32.22° C | 75% | 1016 hPa | 0 mm | - | 120 W/m² | - |
| 1788553922 | 32.22° C | 74% | 1016 hPa | 0 mm | - | 125 W/m² | - |
| 1788553862 | 32.22° C | 74% | 1016 hPa | 0 mm | - | 135 W/m² | - |
| 1788553801 | 32.22° C | 73% | 1016 hPa | 0 mm | - | 144 W/m² | - |
| 1788553743 | 32.22° C | 70% | 1016 hPa | 0 mm | - | 151 W/m² | - |
* Rain latest hour (hover to see other rain measurements)
** Current wind speed in m/s (hover to see current wind gust speed)